Showing default

COSMOS 1247, 12303

Orbit data source: Space-Track

COSMOS 1247, 12303 is a payload satellite owned by PVO (CIS) in HEO that was launched on Thu, 19 Feb 1981 UTC via an MOLNIYA 8K78M launch vehicle from the Plesetsk Missile And Space Complex (PKMTR). Payload-class satellites include a variety of spacecraft equipped with specific instruments for various scientific and technological missions. These include communications satellites like Starlink; space stations such as the ISS; scientific satellites like the Hubble; Earth observation satellites from companies like Planet Labs, Umbra, and HawkEye 360; GPS; miniature CubeSats for education and research; and military/defense satellites.

Loading next visibility...
Identifier
12303, 1981-016A
Orbit
HEO
Country
Flag of CISCIS
Related business
Manufacturer
NPOL/KOMET
Mission
Spacecraft
Bus & Motor
OKO, Unknown motor
Mass
~1,250 kg wet, ~1,150 kg dry
Launch date (UTC)
1981-02-19 (45 years ago)
Launch vehicle
MOLNIYA 8K78M
Launch site
Plesetsk Missile And Space Complex (PKMTR)
Object type
Payload
Rocket body
Debris
Shape & HBR
Unknown
Radar Cross Section
Large (>1 m²)

Expand to show TLE details & history
Last TLE update: 1 week ago

TLE from 1 week ago
0 COSMOS 1247
1 12303U 81016A   26165.16533393  .00000457  00000-0  00000-0 0  9994
2 12303  69.2198 355.5426 6229126 339.0160   3.8442  2.02505089335111
Epoch: 2026-06-14T03:58Z
TLE epoch observation values (Epoch: 2026-06-14T03:58:04.851Z)
Latitude
-0.00135°
Longitude
33.57688°
Altitude
3,862.412 km
Speed
7.922 km/s
True Right ascension
23h 42m 16s
True Declination
0° 00' 05"
Sunlit
Object was in daylight at epoch
Visualization orbit readout
Latitude
Unknown
Longitude
Unknown
Altitude
Unknown
Speed
Unknown
Apparent Right ascension
Unknown
Apparent Declination
Unknown
Sunlit
N/A
Visualization observer readout
Local Sidereal Time
23:09:13
Azimuth
Unknown
Elevation
Unknown
Doppler factor
Unknown
Orbital elements
Apogee altitude
36,449.301 km
Perigee altitude
3,572.915 km
Semi-major axis
26,389.245 km
Eccentricity
0.62291
Inclination
69.2198°
RAAN
355.5426°
Arg. of periapsis
339.016°
True anomaly
20.79294°
Mean anomaly
3.8442°
Eccentric anomaly
10.10798°
Mean motion
0.50629 °/min
Orbital period
711.05 mins
BSTAR
0
Loading maneuver chart data...
Computing Atmospheric mass density...
Loading historical data...
Loading historical data...
Loading historical data...
Loading historical data...
Loading historical data...
Loading historical data...
Loading historical data...

Documentation

Showing up to 5 results
|